2 Carport Messungen

Zurück zum Überblick

Zeitpunkt Temperatur Luftfeuchte
26.01.2020 22:43:47 5,3 C 74,0%
26.01.2020 22:36:45 5,4 C 74,0%
26.01.2020 22:29:44 5,5 C 74,0%
26.01.2020 22:22:41 5,5 C 74,0%
26.01.2020 22:15:41 5,6 C 73,0%
26.01.2020 22:08:39 5,7 C 73,0%
26.01.2020 22:01:38 5,8 C 73,0%
26.01.2020 21:54:37 5,8 C 73,0%
26.01.2020 21:47:35 5,9 C 73,0%
26.01.2020 21:40:34 6,0 C 73,0%
26.01.2020 21:33:31 6,0 C 73,0%
26.01.2020 21:26:30 6,1 C 73,0%
26.01.2020 21:19:27 6,1 C 73,0%
26.01.2020 21:12:24 6,2 C 73,0%
26.01.2020 21:05:21 6,3 C 73,0%
26.01.2020 20:58:20 6,3 C 73,0%
26.01.2020 20:51:18 6,4 C 73,0%
26.01.2020 20:44:15 6,4 C 73,0%
26.01.2020 20:37:11 6,5 C 73,0%
26.01.2020 20:30:10 6,6 C 73,0%
26.01.2020 20:23:08 6,6 C 73,0%
26.01.2020 20:16:05 6,7 C 73,0%
26.01.2020 20:09:04 6,7 C 73,0%
26.01.2020 20:02:02 6,8 C 73,0%
26.01.2020 19:54:59 6,8 C 73,0%
26.01.2020 19:47:56 6,8 C 73,0%
26.01.2020 19:40:55 6,8 C 73,0%
26.01.2020 19:33:53 6,8 C 73,0%
26.01.2020 19:26:51 6,7 C 73,0%
26.01.2020 19:19:48 6,7 C 74,0%
26.01.2020 19:12:48 6,5 C 74,0%
26.01.2020 19:05:47 6,4 C 74,0%
26.01.2020 18:58:45 6,2 C 75,0%
26.01.2020 18:51:42 6,1 C 75,0%
26.01.2020 18:44:41 5,8 C 75,0%
26.01.2020 18:37:38 5,5 C 75,0%
26.01.2020 18:30:36 5,7 C 73,0%
26.01.2020 18:23:33 6,0 C 73,0%
26.01.2020 18:16:32 6,2 C 72,0%
26.01.2020 18:09:30 6,6 C 72,0%
26.01.2020 18:02:27 7,0 C 71,0%
26.01.2020 17:55:26 7,4 C 70,0%
26.01.2020 17:48:24 7,6 C 70,0%
26.01.2020 17:41:21 7,7 C 70,0%
26.01.2020 17:34:18 7,8 C 70,0%
26.01.2020 17:27:16 7,9 C 70,0%
26.01.2020 17:20:15 8,1 C 70,0%
26.01.2020 17:13:14 8,3 C 70,0%
26.01.2020 17:06:13 8,4 C 69,0%
26.01.2020 16:59:11 8,6 C 69,0%
26.01.2020 16:52:10 8,8 C 69,0%
26.01.2020 16:45:09 9,0 C 69,0%
26.01.2020 16:38:06 9,1 C 68,0%
26.01.2020 16:31:04 9,3 C 68,0%
26.01.2020 16:24:01 9,3 C 68,0%
26.01.2020 16:17:00 9,5 C 68,0%
26.01.2020 16:09:58 9,6 C 68,0%
26.01.2020 16:02:58 9,6 C 68,0%
26.01.2020 15:55:56 9,7 C 68,0%
26.01.2020 15:48:55 9,7 C 68,0%
26.01.2020 15:41:54 9,8 C 68,0%
26.01.2020 15:34:52 9,9 C 68,0%
26.01.2020 15:27:49 10,0 C 68,0%
26.01.2020 15:20:47 10,1 C 68,0%
26.01.2020 15:13:44 10,2 C 67,0%
26.01.2020 15:06:43 10,2 C 68,0%
26.01.2020 14:59:41 10,2 C 68,0%
26.01.2020 14:52:40 10,2 C 67,0%
26.01.2020 14:45:39 10,2 C 68,0%
26.01.2020 14:38:36 10,2 C 68,0%
26.01.2020 14:31:34 10,1 C 68,0%
26.01.2020 14:24:30 10,0 C 68,0%
26.01.2020 14:17:28 9,9 C 69,0%
26.01.2020 14:10:26 9,8 C 69,0%
26.01.2020 14:03:24 9,6 C 70,0%
26.01.2020 13:56:21 9,4 C 70,0%
26.01.2020 13:49:19 9,1 C 71,0%
26.01.2020 13:42:19 8,7 C 71,0%
26.01.2020 13:35:17 8,4 C 72,0%
26.01.2020 13:28:17 7,9 C 73,0%
26.01.2020 13:21:14 7,3 C 75,0%
26.01.2020 13:14:12 6,6 C 75,0%
26.01.2020 13:07:10 6,1 C 74,0%
26.01.2020 13:00:08 6,1 C 73,0%
26.01.2020 12:53:08 6,3 C 73,0%
26.01.2020 12:46:05 6,6 C 72,0%
26.01.2020 12:39:04 7,1 C 72,0%
26.01.2020 12:32:03 6,9 C 73,0%
26.01.2020 12:25:02 6,5 C 74,0%
26.01.2020 12:17:59 6,2 C 75,0%
26.01.2020 12:10:58 5,7 C 75,0%
26.01.2020 12:03:55 5,1 C 77,0%
26.01.2020 11:56:53 4,3 C 78,0%
26.01.2020 11:49:50 3,5 C 79,0%
26.01.2020 11:42:49 2,9 C 77,0%
26.01.2020 11:35:49 2,7 C 76,0%
26.01.2020 11:28:46 2,5 C 76,0%
26.01.2020 11:21:45 2,3 C 76,0%
26.01.2020 11:14:44 2,2 C 76,0%
26.01.2020 11:07:42 2,0 C 76,0%
26.01.2020 11:00:40 1,9 C 76,0%
26.01.2020 10:53:37 1,7 C 76,0%
26.01.2020 10:46:35 1,6 C 75,0%
26.01.2020 10:39:32 1,5 C 75,0%
26.01.2020 10:32:30 1,4 C 75,0%
26.01.2020 10:25:29 1,3 C 74,0%
26.01.2020 10:18:27 1,1 C 74,0%
26.01.2020 10:11:25 1,1 C 74,0%
26.01.2020 10:04:23 1,0 C 74,0%
26.01.2020 09:57:22 0,9 C 73,0%
26.01.2020 09:50:20 0,8 C 73,0%
26.01.2020 09:43:19 0,8 C 73,0%
26.01.2020 09:36:16 0,7 C 73,0%
26.01.2020 09:29:14 0,7 C 73,0%
26.01.2020 09:22:12 0,6 C 73,0%
26.01.2020 09:15:08 0,6 C 73,0%
26.01.2020 09:08:06 0,6 C 73,0%
26.01.2020 09:01:04 0,6 C 73,0%
26.01.2020 08:54:02 0,6 C 73,0%
26.01.2020 08:47:00 0,5 C 73,0%
26.01.2020 08:39:59 0,5 C 73,0%
26.01.2020 08:32:58 0,5 C 73,0%
26.01.2020 08:25:56 0,5 C 73,0%
26.01.2020 08:18:52 0,5 C 73,0%
26.01.2020 08:11:51 0,5 C 73,0%
26.01.2020 08:04:48 0,5 C 73,0%
26.01.2020 07:57:47 0,5 C 73,0%
26.01.2020 07:50:43 0,4 C 73,0%
26.01.2020 07:43:44 0,4 C 73,0%
26.01.2020 07:36:40 0,5 C 73,0%
26.01.2020 07:29:37 0,4 C 73,0%
26.01.2020 07:22:34 0,4 C 73,0%
26.01.2020 07:15:33 0,5 C 73,0%
26.01.2020 07:08:30 0,4 C 73,0%
26.01.2020 07:01:26 0,5 C 72,0%
26.01.2020 06:54:24 0,5 C 72,0%
26.01.2020 06:47:23 0,5 C 72,0%
26.01.2020 06:40:22 0,5 C 72,0%
26.01.2020 06:33:19 0,5 C 72,0%
26.01.2020 06:26:17 0,5 C 72,0%
26.01.2020 06:19:15 0,5 C 72,0%
26.01.2020 06:12:12 0,5 C 72,0%
26.01.2020 06:05:10 0,5 C 72,0%
26.01.2020 05:58:10 0,5 C 72,0%
26.01.2020 05:51:08 0,5 C 72,0%
26.01.2020 05:44:06 0,5 C 72,0%
26.01.2020 05:37:04 0,5 C 72,0%
26.01.2020 05:30:03 0,5 C 72,0%
26.01.2020 05:23:01 0,6 C 72,0%
26.01.2020 05:15:58 0,6 C 72,0%
26.01.2020 05:08:56 0,6 C 72,0%
26.01.2020 05:01:55 0,6 C 72,0%
26.01.2020 04:54:54 0,5 C 72,0%
26.01.2020 04:47:53 0,5 C 72,0%
26.01.2020 04:40:50 0,5 C 72,0%
26.01.2020 04:33:47 0,5 C 72,0%
26.01.2020 04:26:46 0,5 C 72,0%
26.01.2020 04:19:43 0,5 C 72,0%
26.01.2020 04:12:41 0,5 C 72,0%
26.01.2020 04:05:39 0,5 C 72,0%
26.01.2020 03:58:35 0,5 C 71,0%
26.01.2020 03:51:35 0,6 C 71,0%
26.01.2020 03:44:32 0,6 C 71,0%
26.01.2020 03:37:29 0,6 C 71,0%
26.01.2020 03:30:28 0,6 C 71,0%
26.01.2020 03:23:26 0,6 C 71,0%
26.01.2020 03:16:24 0,7 C 71,0%
26.01.2020 03:09:20 0,7 C 71,0%
26.01.2020 03:02:20 0,7 C 71,0%
26.01.2020 02:55:19 0,8 C 71,0%
26.01.2020 02:48:16 0,8 C 71,0%
26.01.2020 02:41:13 0,8 C 71,0%
26.01.2020 02:34:12 0,8 C 71,0%
26.01.2020 02:27:09 0,8 C 71,0%
26.01.2020 02:20:07 0,8 C 71,0%
26.01.2020 02:13:06 0,8 C 71,0%
26.01.2020 02:06:03 0,8 C 71,0%
26.01.2020 01:59:01 0,9 C 71,0%
26.01.2020 01:51:59 0,9 C 71,0%
26.01.2020 01:44:56 0,9 C 71,0%
26.01.2020 01:37:55 0,9 C 71,0%
26.01.2020 01:30:53 1,0 C 71,0%
26.01.2020 01:23:51 1,0 C 71,0%
26.01.2020 01:16:48 1,0 C 71,0%
26.01.2020 01:09:46 1,1 C 70,0%
26.01.2020 01:02:44 1,1 C 70,0%
26.01.2020 00:55:41 1,1 C 70,0%
26.01.2020 00:48:40 1,2 C 70,0%
26.01.2020 00:41:38 1,2 C 70,0%
26.01.2020 00:34:37 1,2 C 70,0%
26.01.2020 00:27:36 1,3 C 70,0%
26.01.2020 00:20:35 1,3 C 70,0%
26.01.2020 00:13:34 1,4 C 70,0%
26.01.2020 00:06:31 1,4 C 70,0%